Weather History for Hamilton Island, QU

Change the Weather History Date:

Wednesday, December 4, 2013

  Actual Average Record
Temperature  
Mean Temperature 78 °F -  
Max Temperature 82 °F - - ()
Min Temperature 73 °F - - ()
Cooling Degree Days 12    
Growing Degree Days 28 (Base 50)    
Moisture  
Dew Point 63 °F    
Average Humidity 60    
Maximum Humidity 69    
Minimum Humidity 46    
Precipitation  
Precipitation 0.00 in - - ()
Sea Level Pressure  
Sea Level Pressure 29.86 in    
Wind  
Wind Speed 10 mph ()    
Max Wind Speed 15 mph    
Max Gust Speed -    
T = Trace of Precipitation, MM = Missing Value Source: Averaged Metar Reports

Daily Weather History Graph

Daily Weather History Graph

Search for Another Location

Airport:

Trip Planner

Search our weather history database for the weather conditions in past years. The results will help you decide how hot, cold, wet, or windy it might be!

Date:

Astronomy

Dec. 04, 2013 Rise Set
Actual Time 5:15 AM AEST 6:33 PM AEST
Civil Twilight 4:51 AM AEST 6:57 PM AEST
Nautical Twilight 4:22 AM AEST 7:26 PM AEST
Astronomical Twilight 3:52 AM AEST 7:56 PM AEST
Moon 6:15 AM AEST (12/4) 7:47 PM AEST (12/4)
Length of Visible Light 14h 06m
Length of Day
13h 17m
New Moon, 2% of the Moon is Illuminated
Dec 4
New Moon
Dec 10
First Quarter
Dec 17
Full
Dec 25
Last Quarter
Jan 1
New

Hourly Weather History & Observations

Time (AEST) Temp. Heat Index Dew Point Humidity Pressure Visibility Wind Dir Wind Speed Gust Speed Precip Events Conditions
12:00 AM 75 °F - 62 °F 56% 29.89 in - ENE 11.5 mph - -  
12:00 AM 75.2 °F - 62.6 °F 65% 29.89 in - ENE 11.5 mph - N/A   Unknown
12:30 AM 75.2 °F - 62.6 °F 65% 29.89 in - ENE 11.5 mph - N/A   Unknown
1:00 AM 75.2 °F - 64.4 °F 69% 29.89 in - East 10.4 mph - N/A   Unknown
1:30 AM 75.2 °F - 62.6 °F 65% 29.86 in - ENE 11.5 mph - N/A   Unknown
2:00 AM 75.2 °F - 62.6 °F 65% 29.86 in - ENE 8.1 mph - N/A   Unknown
2:30 AM 75.2 °F - 62.6 °F 65% 29.86 in - ENE 10.4 mph - N/A   Unknown
3:00 AM 75 °F - 63 °F 57% 29.85 in - ENE 10.4 mph - -  
3:00 AM 75.2 °F - 62.6 °F 65% 29.86 in - ENE 10.4 mph - N/A   Unknown
3:30 AM 75.2 °F - 62.6 °F 65% 29.83 in - East 10.4 mph - N/A   Unknown
4:00 AM 75.2 °F - 64.4 °F 69% 29.86 in - East 11.5 mph - N/A   Unknown
4:30 AM 75.2 °F - 62.6 °F 65% 29.86 in - East 10.4 mph - N/A   Unknown
5:00 AM 75.2 °F - 62.6 °F 65% 29.86 in - ENE 9.2 mph - N/A   Unknown
5:30 AM 75.2 °F - 62.6 °F 65% 29.86 in - East 10.4 mph - N/A   Unknown
6:00 AM 76 °F - 62 °F 53% 29.88 in - East 15.0 mph - -  
6:00 AM 77.0 °F - 62.6 °F 61% 29.89 in - East 15.0 mph - N/A   Unknown
6:30 AM 77.0 °F - 62.6 °F 61% 29.89 in - East 11.5 mph - N/A   Unknown
7:00 AM 77.0 °F - 62.6 °F 61% 29.89 in - East 13.8 mph - N/A   Unknown
7:30 AM 78.8 °F - 64.4 °F 61% 29.92 in - East 13.8 mph - N/A   Unknown
8:00 AM 78.8 °F - 64.4 °F 61% 29.92 in - East 12.7 mph - N/A   Unknown
8:30 AM 78.8 °F - 62.6 °F 57% 29.89 in - East 15.0 mph - N/A   Unknown
9:00 AM 79 °F - 62 °F 47% 29.91 in - East 13.8 mph - -  
9:00 AM 78.8 °F - 62.6 °F 57% 29.92 in - East 13.8 mph - N/A   Unknown
9:30 AM 80.6 °F 81.8 °F 62.6 °F 54% 29.89 in - East 13.8 mph - N/A   Unknown
10:00 AM 82.4 °F 83.4 °F 62.6 °F 51% 29.92 in - East 11.5 mph - N/A   Unknown
10:30 AM 80.6 °F 81.8 °F 62.6 °F 54% 29.89 in - East 11.5 mph - N/A   Unknown
11:00 AM 80.6 °F 81.5 °F 60.8 °F 51% 29.89 in - East 10.4 mph - N/A   Unknown
11:30 AM 80.6 °F 81.8 °F 62.6 °F 54% 29.89 in - East 11.5 mph - N/A   Unknown
12:00 PM 80 °F - 63 °F 46% 29.87 in - East 12.7 mph - -  
12:00 PM 80.6 °F 81.8 °F 62.6 °F 54% 29.86 in - East 12.7 mph - N/A   Unknown
12:30 PM 80.6 °F 81.8 °F 62.6 °F 54% 29.86 in - East 10.4 mph - N/A   Unknown
1:00 PM 80.6 °F 81.8 °F 62.6 °F 54% 29.86 in - East 10.4 mph - N/A   Unknown
1:30 PM 80.6 °F 81.8 °F 62.6 °F 54% 29.86 in - East 10.4 mph - N/A   Unknown
2:00 PM 80.6 °F 81.8 °F 62.6 °F 54% 29.83 in - East 11.5 mph - N/A   Unknown
2:30 PM 80.6 °F 81.8 °F 62.6 °F 54% 29.83 in - East 10.4 mph - N/A   Unknown
3:00 PM 80 °F - 63 °F 46% 29.82 in - East 11.5 mph - -  
3:00 PM 80.6 °F 81.8 °F 62.6 °F 54% 29.83 in - East 11.5 mph - N/A   Unknown
3:30 PM 80.6 °F 82.3 °F 64.4 °F 58% 29.83 in - East 11.5 mph - N/A   Unknown
4:00 PM 78.8 °F - 62.6 °F 57% 29.80 in - East 12.7 mph - N/A   Unknown
4:30 PM 78.8 °F - 62.6 °F 57% 29.80 in - East 15.0 mph - N/A   Unknown
5:00 PM 78.8 °F - 62.6 °F 57% 29.80 in - East 12.7 mph - N/A   Unknown
5:30 PM 78.8 °F - 62.6 °F 57% 29.80 in - East 10.4 mph - N/A   Unknown
6:00 PM 77 °F - 63 °F 52% 29.81 in - East 11.5 mph - -  
6:00 PM 77.0 °F - 62.6 °F 61% 29.80 in - East 11.5 mph - N/A   Unknown
6:30 PM 77.0 °F - 64.4 °F 65% 29.80 in - East 9.2 mph - N/A   Unknown
7:00 PM 77.0 °F - 62.6 °F 61% 29.80 in - ENE 9.2 mph - N/A   Unknown
7:30 PM 77.0 °F - 62.6 °F 61% 29.83 in - NE 6.9 mph - N/A   Unknown
8:00 PM 75.2 °F - 64.4 °F 69% 29.83 in - North 5.8 mph - N/A   Unknown
8:30 PM 75.2 °F - 64.4 °F 69% 29.83 in - North 6.9 mph - N/A   Unknown
9:00 PM 75 °F - 64 °F 61% 29.84 in - NNW 6.9 mph - -  
9:00 PM 75.2 °F - 64.4 °F 69% 29.83 in - NNW 6.9 mph - N/A   Unknown
9:30 PM 75.2 °F - 64.4 °F 69% 29.83 in - NNW 6.9 mph - N/A   Unknown
10:00 PM 75.2 °F - 62.6 °F 65% 29.86 in - North 5.8 mph - N/A   Unknown
10:30 PM 75.2 °F - 62.6 °F 65% 29.86 in - NNW 4.6 mph - N/A   Unknown
11:00 PM 75.2 °F - 62.6 °F 65% 29.83 in - North 6.9 mph - N/A   Unknown
11:30 PM 75.2 °F - 64.4 °F 69% 29.83 in - North 6.9 mph - N/A   Unknown